User: anonymous   Login
Location: Unspecified
(0.0000°N, 0.0000°E)
Time: 04:04:49
(UTC+00:00)
Language:

UNISAT 3 - Orbit

View from above orbital plane
View from above orbital plane
View from above satellite
View from above satellite

Ground track
Ground track

The orbit data is extracted from the following two-line orbital elements,

1 28373U 04025H   18022.78898089  .00000053  00000-0  27393-4 0  9990
2 28373  98.3612 326.1524 0067769 263.6312  95.7159 14.45454970715625
Epoch (UTC): 22 January 2018 18:56:07
Eccentricity: 0.0067769
inclination: 98.3612°
perigee height: 692 km
apogee height: 789 km
right ascension of ascending node: 326.1524°
argument of perigee: 263.6312°
revolutions per day: 14.45454970
mean anomaly at epoch: 95.7159°
orbit number at epoch: 71562

The dashed part of the orbit path shows where the satellite is in the earth's shadow,  

DLR